Tracking 19219 objects as of 19-Jul-2018
HD Live streaming from Space Station
objects crossing your sky now

COSMOS 660

Track COSMOS 660 now!
10-day predictions
COSMOS 660 is classified as:


NORAD ID: 7337
Int'l Code: 1974-044A
Perigee: 380.8 km
Apogee: 1,163.5 km
Inclination: 82.9 °
Period: 100.1 minutes
Semi major axis: 7143 km
RCS: 2.9855 m2 (large)
Launch date: June 18, 1974
Source: Commonwealth of Independent States (former USSR) (CIS)
Launch site: PLESETSK MISSILE AND SPACE COMPLEX (PKMTR)
aabbcc
Your satellite tracking list
Your tracking list is empty




NASA's NSSDC Master Catalog

Two Line Element Set (TLE):
1  7337U 74044A   18200.58073600 +.00000577 +00000-0 +27058-4 0  9994
2  7337 082.9473 171.8136 0547868 131.6195 233.3299 14.38018317223774
Source of the keplerian elements: AFSPC